Weather History for KAUM - June, 2013

Change the Weather History Date:

Monday, June 24, 2013

  Actual Average Record
Temperature  
Mean Temperature 70 °F -  
Max Temperature 73 °F 77 °F 89 °F (2003)
Min Temperature 66 °F 58 °F 48 °F (2004)
Cooling Degree Days 4    
Growing Degree Days 20 (Base 50)    
Moisture  
Dew Point 65 °F    
Average Humidity 85    
Maximum Humidity 94    
Minimum Humidity 73    
Precipitation  
Precipitation 0.18 in - - ()
Sea Level Pressure  
Sea Level Pressure 29.90 in    
Wind  
Wind Speed 4 mph (South)    
Max Wind Speed 17 mph    
Max Gust Speed 24 mph    
Visibility 9 miles    
Events Rain , Thunderstorm    
Averages and records for this station are not official NWS values.
T = Trace of Precipitation, MM = Missing Value Source: NWS Daily Summary

Daily Weather History Graph

Daily Weather History Graph

Search for Another Location

Airport or City:

Trip Planner

Search our weather history database for the weather conditions in past years. The results will help you decide how hot, cold, wet, or windy it might be!

Date:

Astronomy

Jun. 24, 2013 Rise Set
Actual Time 5:31 AM CDT 8:57 PM CDT
Civil Twilight 4:55 AM CDT 9:33 PM CDT
Nautical Twilight 4:07 AM CDT 10:20 PM CDT
Astronomical Twilight 3:08 AM CDT 11:20 PM CDT
Moon 9:55 PM CDT (6/24) 7:02 AM CDT (6/24)
Length of Visible Light 16h 38m
Length of Day
15h 26m
Full, 98% of the Moon is Illuminated
Jun 24
Full
Jun 29
Last Quarter
Jul 8
New
Jul 15
First Quarter
Jul 22
Full

Hourly Weather History & Observations

Time (CDT) Temp. Dew Point Humidity Pressure Visibility Wind Dir Wind Speed Gust Speed Precip Events Conditions
12:16 AM 71.6 °F 64.4 °F 78% 29.93 in 10.0 mi South 3.5 mph - N/A   Clear
12:36 AM 69.8 °F 64.4 °F 83% 29.94 in 10.0 mi Calm Calm - N/A   Clear
12:56 AM 69.8 °F 64.4 °F 83% 29.94 in 10.0 mi Calm Calm - N/A   Clear
1:16 AM 69.8 °F 64.4 °F 83% 29.94 in 10.0 mi Calm Calm - N/A   Clear
1:36 AM 68.0 °F 64.4 °F 88% 29.94 in 10.0 mi Calm Calm - N/A   Clear
1:56 AM 69.8 °F 64.4 °F 83% 29.93 in 10.0 mi Calm Calm - N/A   Clear
2:16 AM 68.0 °F 64.4 °F 88% 29.93 in 10.0 mi Calm Calm - N/A   Clear
2:36 AM 68.0 °F 64.4 °F 88% 29.92 in 7.0 mi Calm Calm - N/A   Clear
2:56 AM 69.8 °F 66.2 °F 88% 29.92 in 5.0 mi Calm Calm - N/A   Clear
3:16 AM 68.0 °F 64.4 °F 88% 29.92 in 5.0 mi Calm Calm - N/A   Clear
3:36 AM 69.8 °F 66.2 °F 88% 29.93 in 5.0 mi Calm Calm - N/A   Clear
3:56 AM 68.0 °F 66.2 °F 94% 29.93 in 5.0 mi South 3.5 mph - N/A   Clear
4:16 AM 69.8 °F 66.2 °F 88% 29.92 in 5.0 mi South 3.5 mph - N/A   Clear
4:36 AM 68.0 °F 66.2 °F 94% 29.92 in 4.0 mi Calm Calm - N/A   Scattered Clouds
4:56 AM 68.0 °F 66.2 °F 94% 29.92 in 2.5 mi Calm Calm - N/A   Mostly Cloudy
5:15 AM 69.8 °F 66.2 °F 88% 29.93 in 5.0 mi SE 4.6 mph - N/A   Overcast
5:36 AM 69.8 °F 66.2 °F 88% 29.94 in 7.0 mi SSE 3.5 mph - N/A   Mostly Cloudy
5:56 AM 69.8 °F 66.2 °F 88% 29.93 in 7.0 mi South 4.6 mph - N/A   Mostly Cloudy
6:16 AM 69.8 °F 66.2 °F 88% 29.93 in 7.0 mi Calm Calm - N/A   Mostly Cloudy
6:36 AM 69.8 °F 66.2 °F 88% 29.93 in 7.0 mi SSW 3.5 mph - N/A   Mostly Cloudy
6:56 AM 69.8 °F 66.2 °F 88% 29.94 in 7.0 mi SSW 3.5 mph - N/A   Overcast
7:15 AM 69.8 °F 66.2 °F 88% 29.93 in 7.0 mi West 3.5 mph - N/A   Scattered Clouds
7:36 AM 69.8 °F 68.0 °F 94% 29.92 in 10.0 mi WSW 3.5 mph - N/A   Clear
7:56 AM 71.6 °F 68.0 °F 88% 29.91 in 7.0 mi Calm Calm - N/A   Clear
8:15 AM 71.6 °F 68.0 °F 88% 29.92 in 7.0 mi SSE 3.5 mph - N/A   Clear
8:36 AM 73.4 °F 69.8 °F 88% 29.93 in 10.0 mi SE 8.1 mph - N/A   Scattered Clouds
8:56 AM 73.4 °F 68.0 °F 83% 29.93 in 10.0 mi SSE 5.8 mph - N/A   Overcast
9:15 AM 71.6 °F 68.0 °F 88% 29.94 in 10.0 mi SE 6.9 mph - N/A   Overcast
9:36 AM 71.6 °F 66.2 °F 83% 29.95 in 10.0 mi SSE 8.1 mph - N/A   Overcast
9:56 AM 73.4 °F 68.0 °F 83% 29.94 in 10.0 mi SSE 5.8 mph - N/A   Overcast
10:15 AM 73.4 °F 68.0 °F 83% 29.94 in 10.0 mi SE 9.2 mph - N/A   Overcast
10:36 AM 73.4 °F 68.0 °F 83% 29.95 in 10.0 mi SSE 10.4 mph - N/A   Overcast
10:56 AM 73.4 °F 68.0 °F 83% 29.95 in 10.0 mi SSE 9.2 mph - N/A   Overcast
11:15 AM 73.4 °F 68.0 °F 83% 29.94 in 10.0 mi South 9.2 mph - N/A   Overcast
11:36 AM 73.4 °F 68.0 °F 83% 29.96 in 10.0 mi South 9.2 mph - N/A   Overcast
11:56 AM 73.4 °F 68.0 °F 83% 29.94 in 10.0 mi SSE 6.9 mph - N/A Thunderstorm Mostly Cloudy
12:15 PM 73.4 °F 68.0 °F 83% 29.95 in 10.0 mi SSE 13.8 mph 19.6 mph N/A Thunderstorm Mostly Cloudy
12:36 PM 68.0 °F 62.6 °F 83% 29.96 in 10.0 mi South 13.8 mph 20.7 mph N/A Rain , Thunderstorm Light Thunderstorms and Rain
12:56 PM 66.2 °F 62.6 °F 88% 29.94 in 10.0 mi SSW 5.8 mph - N/A Rain Rain
1:15 PM 66.2 °F 62.6 °F 88% 29.93 in 10.0 mi SE 10.4 mph - 0.02 in Rain Rain
1:36 PM 66.2 °F 62.6 °F 88% 29.90 in 10.0 mi South 16.1 mph 21.9 mph 0.05 in Rain Light Rain
1:56 PM 68.0 °F 62.6 °F 83% 29.89 in 10.0 mi South 16.1 mph 24.2 mph N/A   Light Drizzle
2:16 PM 68.0 °F 62.6 °F 83% 29.87 in 10.0 mi South 17.3 mph - N/A   Clear
2:36 PM 69.8 °F 62.6 °F 78% 29.86 in 10.0 mi South 15.0 mph 21.9 mph N/A Thunderstorm Clear
2:56 PM 68.0 °F 62.6 °F 83% 29.87 in 10.0 mi South 12.7 mph - N/A Rain , Thunderstorm Light Thunderstorms and Rain
3:16 PM 68.0 °F 62.6 °F 83% 29.87 in 10.0 mi South 13.8 mph - N/A Rain Light Rain
3:36 PM 66.2 °F 62.6 °F 88% 29.88 in 10.0 mi South 15.0 mph 23.0 mph 0.02 in Rain Rain
3:56 PM 66.2 °F 62.6 °F 88% 29.85 in 10.0 mi South 12.7 mph 20.7 mph N/A Rain Light Rain
4:16 PM 68.0 °F 60.8 °F 78% 29.81 in 10.0 mi SSE 15.0 mph 19.6 mph 0.01 in Rain Light Rain
4:36 PM 68.0 °F 62.6 °F 83% 29.81 in 10.0 mi South 5.8 mph 17.3 mph 0.01 in Rain Light Rain
4:56 PM 68.0 °F 62.6 °F 83% 29.83 in 10.0 mi South 12.7 mph 18.4 mph N/A   Clear
5:15 PM 69.8 °F 62.6 °F 78% 29.84 in 10.0 mi South 12.7 mph 19.6 mph N/A Rain Light Rain
5:36 PM 69.8 °F 64.4 °F 83% 29.85 in 10.0 mi SSW 11.5 mph 17.3 mph N/A   Clear
5:56 PM 71.6 °F 64.4 °F 78% 29.85 in 10.0 mi South 10.4 mph - N/A   Clear
6:16 PM 71.6 °F 62.6 °F 73% 29.85 in 10.0 mi SSW 6.9 mph - N/A   Clear
6:36 PM 71.6 °F 64.4 °F 78% 29.86 in 10.0 mi SW 5.8 mph - N/A   Clear
6:56 PM 71.6 °F 64.4 °F 78% 29.86 in 7.0 mi SSW 5.8 mph - N/A Thunderstorm Thunderstorm
7:16 PM 69.8 °F 64.4 °F 83% 29.86 in 5.0 mi SSW 4.6 mph - 0.01 in Rain , Thunderstorm Thunderstorms and Rain
7:36 PM 69.8 °F 64.4 °F 83% 29.87 in 10.0 mi Calm Calm - 0.01 in   Mostly Cloudy
7:56 PM 69.8 °F 64.4 °F 83% 29.86 in 10.0 mi Calm Calm - N/A   Overcast
8:16 PM 69.8 °F 64.4 °F 83% 29.85 in 10.0 mi East 3.5 mph - N/A   Scattered Clouds
8:36 PM 69.8 °F 64.4 °F 83% 29.85 in 10.0 mi Calm Calm - N/A Thunderstorm Scattered Clouds
8:56 PM 69.8 °F 66.2 °F 88% 29.85 in 10.0 mi Calm Calm - N/A Thunderstorm Scattered Clouds
9:16 PM 69.8 °F 66.2 °F 88% 29.84 in 10.0 mi Calm Calm - 0.01 in Rain , Thunderstorm Light Thunderstorms and Rain
9:36 PM 69.8 °F 66.2 °F 88% 29.85 in 10.0 mi SE 3.5 mph - 0.02 in Rain , Thunderstorm Rain
9:56 PM 69.8 °F 66.2 °F 88% 29.86 in 10.0 mi North 4.6 mph - N/A Rain , Thunderstorm Light Thunderstorms and Rain
10:16 PM 68.0 °F 66.2 °F 94% 29.85 in 10.0 mi East 6.9 mph - 0.05 in Rain , Thunderstorm Light Thunderstorms and Rain
10:36 PM 68.0 °F 64.4 °F 88% 29.85 in 10.0 mi ESE 6.9 mph - 0.05 in Thunderstorm Overcast
10:56 PM 68.0 °F 64.4 °F 88% 29.85 in 10.0 mi SE 4.6 mph - N/A   Overcast
11:16 PM 68.0 °F 64.4 °F 88% 29.86 in 10.0 mi SE 4.6 mph - N/A Thunderstorm Thunderstorm
11:36 PM 68.0 °F 64.4 °F 88% 29.87 in 10.0 mi NNE 10.4 mph 17.3 mph 0.02 in Rain , Thunderstorm Heavy Thunderstorms and Rain
11:56 PM 68.0 °F 64.4 °F 88% 29.86 in 10.0 mi NE 6.9 mph - 0.01 in Rain , Thunderstorm Light Thunderstorms and Rain